Weather History for Cando, ND

Change the Weather History Date:

Saturday, March 22, 2014

  Actual Average (KDVL) Record (KDVL)
Temperature  
Mean Temperature 9 °F -  
Max Temperature 17 °F 37 °F 67 °F (1963)
Min Temperature 1 °F 19 °F -11 °F (1974)
Degree Days  
Heating Degree Days 56    
Moisture  
Dew Point 0 °F    
Average Humidity 67    
Maximum Humidity 85    
Minimum Humidity 49    
Precipitation  
Precipitation 0.00 in - - ()
Sea Level Pressure  
Sea Level Pressure 30.47 in    
Wind  
Wind Speed 13 mph (NW)    
Max Wind Speed 20 mph    
Max Gust Speed 25 mph    
Visibility 10 miles    
Events      
Averages and records for this station are not official NWS values.
T = Trace of Precipitation, MM = Missing Value Source: NWS Daily Summary

Daily Weather History Graph

Daily Weather History Graph

Search for Another Location

Airport:

Trip Planner

Search our weather history database for the weather conditions in past years. The results will help you decide how hot, cold, wet, or windy it might be!

Date:

Astronomy

Mar. 22, 2014 Rise Set
Actual Time 7:35 AM CDT 7:52 PM CDT
Civil Twilight 7:04 AM CDT 8:24 PM CDT
Nautical Twilight 6:27 AM CDT 9:01 PM CDT
Astronomical Twilight 5:49 AM CDT 9:39 PM CDT
Moon 1:36 AM CDT (3/22) 10:56 AM CDT (3/22)
Length of Visible Light 13h 19m
Length of Day
12h 17m
Waning Gibbous, 65% of the Moon is Illuminated
Mar 22
Waning Gibbous
Mar 23
Last Quarter
Mar 30
New
Apr 7
First Quarter
Apr 15
Full

Hourly Weather History & Observations

Time (CDT) Temp. Windchill Dew Point Humidity Pressure Visibility Wind Dir Wind Speed Gust Speed Precip Events Conditions
12:15 AM 6.8 °F -10.0 °F -0.4 °F 72% 30.42 in 10.0 mi NNW 13.8 mph 21.9 mph N/A   Partly Cloudy
12:35 AM 6.8 °F -12.9 °F -0.4 °F 72% 30.42 in 10.0 mi NNW 19.6 mph 25.3 mph N/A   Scattered Clouds
12:55 AM 6.8 °F -12.9 °F -0.4 °F 72% 30.43 in 10.0 mi NNW 19.6 mph 23.0 mph N/A   Partly Cloudy
1:15 AM 6.8 °F -10.7 °F -0.4 °F 72% 30.43 in 10.0 mi NNW 15.0 mph - N/A   Clear
1:35 AM 6.8 °F -10.7 °F -0.4 °F 72% 30.43 in 10.0 mi NNW 15.0 mph - N/A   Scattered Clouds
1:55 AM 5.0 °F -14.2 °F -0.4 °F 78% 30.43 in 10.0 mi NNW 17.3 mph - N/A   Partly Cloudy
2:15 AM 5.0 °F -11.6 °F -0.4 °F 78% 30.44 in 10.0 mi NNW 12.7 mph - N/A   Partly Cloudy
2:35 AM 5.0 °F -14.2 °F -0.4 °F 78% 30.44 in 10.0 mi NNW 17.3 mph - N/A   Clear
2:55 AM 5.0 °F -13.0 °F -0.4 °F 78% 30.44 in 10.0 mi NNW 15.0 mph - N/A   Clear
3:15 AM 5.0 °F -13.0 °F -0.4 °F 78% 30.44 in 10.0 mi NNW 15.0 mph - N/A   Clear
3:35 AM 5.0 °F -12.3 °F -2.2 °F 72% 30.44 in 10.0 mi NNW 13.8 mph - N/A   Clear
3:55 AM 5.0 °F -12.3 °F -2.2 °F 72% 30.44 in 10.0 mi NNW 13.8 mph - N/A   Clear
4:15 AM 3.2 °F -13.9 °F -2.2 °F 78% 30.44 in 10.0 mi NNW 12.7 mph - N/A   Clear
4:35 AM 3.2 °F -13.1 °F -2.2 °F 78% 30.44 in 10.0 mi NNW 11.5 mph - N/A   Clear
4:55 AM 1.4 °F -15.3 °F -2.2 °F 85% 30.44 in 10.0 mi NNW 11.5 mph - N/A   Clear
5:15 AM 1.4 °F -15.3 °F -2.2 °F 85% 30.44 in 10.0 mi NNW 11.5 mph - N/A   Clear
5:35 AM 1.4 °F -14.5 °F -2.2 °F 85% 30.45 in 10.0 mi NNW 10.4 mph - N/A   Clear
5:55 AM 1.4 °F -13.5 °F -2.2 °F 85% 30.45 in 10.0 mi NNW 9.2 mph - N/A   Clear
6:15 AM 1.4 °F -12.5 °F -2.2 °F 85% 30.45 in 10.0 mi NNW 8.1 mph - N/A   Clear
6:35 AM 1.4 °F -12.5 °F -2.2 °F 85% 30.46 in 10.0 mi NNW 8.1 mph - N/A   Clear
6:55 AM 1.4 °F -9.9 °F -2.2 °F 85% 30.47 in 10.0 mi NW 5.8 mph - N/A   Clear
7:15 AM 1.4 °F -12.5 °F -2.2 °F 85% 30.47 in 10.0 mi NW 8.1 mph - N/A   Clear
7:35 AM 1.4 °F -13.5 °F -2.2 °F 85% 30.47 in 10.0 mi NW 9.2 mph - N/A   Clear
7:55 AM 1.4 °F -12.5 °F -2.2 °F 85% 30.47 in 10.0 mi NW 8.1 mph - N/A   Clear
8:15 AM 1.4 °F -13.5 °F -2.2 °F 85% 30.48 in 10.0 mi NW 9.2 mph - N/A   Clear
8:35 AM 3.2 °F -13.1 °F -2.2 °F 78% 30.48 in 10.0 mi NW 11.5 mph - N/A   Clear
8:55 AM 5.0 °F -10.0 °F -2.2 °F 72% 30.49 in 10.0 mi NW 10.4 mph - N/A   Clear
9:15 AM 5.0 °F -9.1 °F -2.2 °F 72% 30.49 in 10.0 mi NW 9.2 mph - N/A   Clear
9:35 AM 6.8 °F -7.8 °F -0.4 °F 72% 30.50 in 10.0 mi NW 10.4 mph - N/A   Clear
9:55 AM 6.8 °F -7.8 °F -2.2 °F 67% 30.50 in 10.0 mi NNW 10.4 mph - N/A   Clear
10:15 AM 8.6 °F -5.5 °F -0.4 °F 67% 30.50 in 10.0 mi NW 10.4 mph - N/A   Clear
10:35 AM 8.6 °F -3.7 °F -2.2 °F 62% 30.51 in 10.0 mi NNW 8.1 mph - N/A   Clear
10:55 AM 10.4 °F -0.4 °F -0.4 °F 62% 30.51 in 10.0 mi NW 6.9 mph - N/A   Clear
11:15 AM 10.4 °F -3.3 °F -0.4 °F 62% 30.51 in 10.0 mi WNW 10.4 mph 16.1 mph N/A   Clear
11:35 AM 10.4 °F -4.1 °F -0.4 °F 62% 30.51 in 10.0 mi NW 11.5 mph 17.3 mph N/A   Clear
11:55 AM 12.2 °F -2.5 °F -0.4 °F 57% 30.51 in 10.0 mi NW 12.7 mph 18.4 mph N/A   Clear
12:15 PM 12.2 °F -2.5 °F -0.4 °F 57% 30.51 in 10.0 mi WNW 12.7 mph - N/A   Partly Cloudy
12:35 PM 14.0 °F 2.9 °F -0.4 °F 53% 30.51 in 10.0 mi NW 8.1 mph 23.0 mph N/A   Scattered Clouds
12:55 PM 14.0 °F 1.2 °F -0.4 °F 53% 30.50 in 10.0 mi NW 10.4 mph 18.4 mph N/A   Scattered Clouds
1:15 PM 14.0 °F 1.2 °F -0.4 °F 53% 30.50 in 10.0 mi NNW 10.4 mph 17.3 mph N/A   Scattered Clouds
1:35 PM 14.0 °F -0.2 °F 1.4 °F 57% 30.50 in 10.0 mi WNW 12.7 mph 18.4 mph N/A   Mostly Cloudy
1:55 PM 15.8 °F 1.4 °F 1.4 °F 53% 30.49 in 10.0 mi WNW 13.8 mph 17.3 mph N/A   Mostly Cloudy
2:15 PM 15.8 °F 2.1 °F 1.4 °F 53% 30.49 in 10.0 mi WNW 12.7 mph 19.6 mph N/A   Mostly Cloudy
2:35 PM 15.8 °F 2.7 °F 1.4 °F 53% 30.49 in 10.0 mi NW 11.5 mph 17.3 mph N/A   Overcast
2:55 PM 15.8 °F 1.4 °F 1.4 °F 53% 30.48 in 10.0 mi WNW 13.8 mph - N/A   Overcast
3:15 PM 15.8 °F 2.1 °F 3.2 °F 58% 30.48 in 10.0 mi WNW 12.7 mph 18.4 mph N/A   Overcast
3:35 PM 17.6 °F 3.7 °F 1.4 °F 49% 30.47 in 10.0 mi WNW 13.8 mph 19.6 mph N/A   Mostly Cloudy
3:55 PM 15.8 °F 2.7 °F 1.4 °F 53% 30.47 in 10.0 mi NW 11.5 mph 19.6 mph N/A   Overcast
4:15 PM 17.6 °F 2.2 °F 1.4 °F 49% 30.46 in 10.0 mi WNW 17.3 mph 20.7 mph N/A   Overcast
4:35 PM 17.6 °F 2.7 °F 1.4 °F 49% 30.46 in 10.0 mi NW 16.1 mph 21.9 mph N/A   Overcast
4:55 PM 17.6 °F 2.7 °F 1.4 °F 49% 30.46 in 10.0 mi WNW 16.1 mph 21.9 mph N/A   Overcast
5:15 PM 15.8 °F 0.9 °F 1.4 °F 53% 30.46 in 10.0 mi WNW 15.0 mph - N/A   Mostly Cloudy
5:35 PM 15.8 °F 2.1 °F 1.4 °F 53% 30.46 in 10.0 mi NW 12.7 mph - N/A   Mostly Cloudy
5:55 PM 17.6 °F 3.7 °F 1.4 °F 49% 30.46 in 10.0 mi NW 13.8 mph - N/A   Mostly Cloudy
6:15 PM 15.8 °F 2.1 °F 1.4 °F 53% 30.47 in 10.0 mi NW 12.7 mph 19.6 mph N/A   Mostly Cloudy
6:35 PM 14.0 °F -0.2 °F 1.4 °F 57% 30.47 in 10.0 mi NW 12.7 mph - N/A   Mostly Cloudy
6:55 PM 14.0 °F -0.2 °F 1.4 °F 57% 30.46 in 10.0 mi WNW 12.7 mph - N/A   Scattered Clouds
7:15 PM 14.0 °F -0.2 °F 1.4 °F 57% 30.46 in 10.0 mi WNW 12.7 mph - N/A   Mostly Cloudy
7:35 PM 14.0 °F -1.4 °F 1.4 °F 57% 30.46 in 10.0 mi NW 15.0 mph 20.7 mph N/A   Scattered Clouds
7:55 PM 14.0 °F -0.2 °F 1.4 °F 57% 30.46 in 10.0 mi NW 12.7 mph - N/A   Clear
8:15 PM 12.2 °F -1.8 °F 1.4 °F 62% 30.46 in 10.0 mi NW 11.5 mph - N/A   Clear
8:35 PM 12.2 °F -1.8 °F 1.4 °F 62% 30.46 in 10.0 mi WNW 11.5 mph - N/A   Clear
8:55 PM 12.2 °F -1.8 °F 1.4 °F 62% 30.47 in 10.0 mi NW 11.5 mph - N/A   Clear
9:15 PM 10.4 °F -4.8 °F 1.4 °F 67% 30.47 in 10.0 mi NW 12.7 mph - N/A   Clear
9:35 PM 10.4 °F -2.4 °F 1.4 °F 67% 30.47 in 10.0 mi NW 9.2 mph - N/A   Clear
9:55 PM 10.4 °F -2.4 °F 1.4 °F 67% 30.47 in 10.0 mi NW 9.2 mph - N/A   Clear
10:15 PM 10.4 °F -2.4 °F -0.4 °F 62% 30.47 in 10.0 mi NW 9.2 mph - N/A   Clear
10:35 PM 8.6 °F -3.7 °F 1.4 °F 73% 30.47 in 10.0 mi NW 8.1 mph - N/A   Clear
10:55 PM 8.6 °F -2.6 °F 1.4 °F 73% 30.47 in 10.0 mi NW 6.9 mph - N/A   Clear
11:15 PM 6.8 °F -3.5 °F 1.4 °F 79% 30.47 in 10.0 mi NW 5.8 mph - N/A   Clear
11:35 PM 6.8 °F -3.5 °F 1.4 °F 79% 30.47 in 10.0 mi NW 5.8 mph - N/A   Clear
11:55 PM 6.8 °F -3.5 °F 1.4 °F 79% 30.48 in 10.0 mi NW 5.8 mph - N/A   Clear